Location: Aufkirchen
(47.9603°N, 11.3653°E)
Time: 15:05:18
(UTC+01:00)

Transit 2A Rocket - Pass Details

Date: 10 December 2020
Orbit: 592 x 910 km, 66.7° (Epoch: 21 January)

Event Time Altitude Azimuth Distance (km) Brightness Sun altitude
Rises 21:41:22 0° 159° (SSE) 3,490 - -51.7°
Reaches altitude 10° 21:45:05 10° 136° (SE) 2,516 - -52.3°
Maximum altitude 21:48:05 14° 105° (ESE) 2,174 - -52.7°
Drops below altitude 10° 21:51:00 10° 74° (ENE) 2,434 - -53.1°
Sets 21:54:29 0° 51° (NE) 3,305 - -53.6°
